sat.trackr.live / text

‹ back to catalog

SHARJAH-SAT-2

NORAD 68444 · 2026-067AE

PAYLOAD ACTIVE UNKNOWN

§ Identity

Operator
Country
UAE
Launch date
2026-03-30
Launch site
AFWTR
Launch vehicle
Mass (kg)
RCS (m²)

External: N2YO · Heavens-Above · Gunter

§ Orbital elements

Epoch: 2026-09-20T03:37:04.331712Z

Period
94.74 min
Inclination
97.4677°
Eccentricity
0.0002731
Mean motion
15.19908452 rev/d
Perigee alt
504.2 km
Apogee alt
508.0 km
Semi-major
6,884.3 km
B*
2.1717e-4
RAAN
220.5783°
Arg perigee
57.4797°
Mean anomaly
302.6701°
Rev number
2,636

§ Raw data

SHARJAH-SAT-21 68444U 26067AE  26263.15074458  .00004597  00000+0  21717-3 0  99952 68444  97.4677 220.5783 0002731  57.4797 302.6701 15.19908452 26367

JSON: /api/v1/satellites/68444 · /tle

For live sub-satellite position, see the globe view (requires WebGL).

§ Visibility from observer

Set your observer location to see the next 7 days of passes ≥ 10°. The values pass through the URL so the page stays shareable.

No JS? Fill the form by hand. The geolocation button needs JavaScript.